Yorkton Municipal Airport
CYQV : now visible

Airfield :











YOU CAN JOIN US ON...

 
LOGIN :

Register | Disclaimer

   EN    FR    IT 

 









Legend :    VFR   Marginal VFR   IFR   Intensive IFR   Very Intensive IFR
Visi :
Ceiling :
>= 8 km
>= 3000ft
5 to 8 km
1000 to 3000 ft
1500m to 5 km
500 to 1000 ft
800 to 1500m
200 to 500 ft
< 800m
< 200 ft
Symbols :   Thunderstorms  Fog  Heavy snow  Heavy precipitations  Wind > 20 kt






- Airport Elevation : 1635 ft
- IATA code : YQV


CYQV - Yorkton Municipal

CURRENT METAR :
  • 260923Z AUTO 36014KT 2 1/4SM -SN OVC026 M07/M08 A2988 RMK SLP152

EXPIRED METARs :
  • 260900Z AUTO 36010KT 5SM -SN OVC024 M07/M08 A2987 RMK SLP151
  • 260846Z AUTO 01009KT 5SM -SN OVC022 M07/M08 A2986 RMK SLP147
  • 260800Z AUTO 01010KT 9SM -SN OVC018 M06/M07 A2986 RMK SLP145
  • 260732Z AUTO 36011KT 9SM -SN FEW007 OVC014 M06/M07 A2984 RMK SLP141
  • 260700Z AUTO 36010KT 9SM OVC010 M06/M06 A2983 RMK SLP138

Expired Forecast.



MET'MAP, your aeronautical weather chart ! - Copyright ORBIFLY December 2007 - Disclaimer

ORBIFLY MET'MAP TEAM :

Programming & Development : Alexandra Zaïnal
Concept & original design : Baudouin d'Aumeries
Assistance for programming : Marc-Olivier Méhu
Technical & hardware support : Manuel Goepfert

Contact : metmap@orbifly.com




SOURCES & CREDITS :

   NOAA       Earth
Advisory